Stations météo

réclame
Mon MeteoGroup
Terschelling/Hoorn, Pays-Bas (6251): Température de l'air & dewpoint: 13.06.2018 22:00:00 - 19.06.2018 22:00:00 (CEST)Terschelling/Hoorn, Pays-Bas (6251): Température de l'air 5cm: 13.06.2018 22:00:00 - 19.06.2018 22:00:00 (CEST)Terschelling/Hoorn, Pays-Bas (6251): Vitesse du vent & gusts: 13.06.2018 22:00:00 - 19.06.2018 22:00:00 (CEST)Terschelling/Hoorn, Pays-Bas (6251): Direction du vent: 13.06.2018 22:00:00 - 19.06.2018 22:00:00 (CEST)Terschelling/Hoorn, Pays-Bas (6251): reduced air pressure: 13.06.2018 22:00:00 - 19.06.2018 22:00:00 (CEST)Terschelling/Hoorn, Pays-Bas (6251): visibility: 13.06.2018 22:00:00 - 19.06.2018 22:00:00 (CEST)Terschelling/Hoorn, Pays-Bas (6251): Quantités de précipitations: 13.06.2018 22:00:00 - 19.06.2018 22:00:00 (CEST)
Date & Time tt [°C] td [°C] tt 5cm [°C] ff [km/h] ff [knt] fx [km/h] fx [knt] dd ppp [hPa] vv [km] rr [mm]
19.06.2018 22:00:00 17,7 15,0 17,3 18 10 - - SW 1022,6 48 -
19.06.2018 21:00:00 17,3 14,3 17,1 14 8 22 12 SW 1022,4 37 0,0
19.06.2018 20:00:00 17,7 13,9 17,8 11 6 22 12 SW 1022,6 39 0,0
19.06.2018 19:00:00 18,2 12,9 18,7 14 8 25 14 WSW 1022,8 40 0,0
19.06.2018 18:00:00 18,3 12,4 19,0 18 10 29 16 WSW 1023,1 44 0,0
19.06.2018 17:00:00 19,7 11,5 20,8 25 14 32 18 SW 1023,2 30 0,0
19.06.2018 16:00:00 18,3 12,1 19,5 22 12 32 18 SW 1023,2 30 0,0
19.06.2018 15:00:00 19,9 13,6 21,7 22 12 32 18 SW 1022,9 24 0,0
19.06.2018 14:00:00 19,6 14,0 21,2 18 10 29 16 W 1022,9 30 0,0
19.06.2018 13:00:00 19,2 13,6 21,6 18 10 29 16 W 1022,6 36 0,0
19.06.2018 12:00:00 19,4 13,1 21,3 14 8 25 14 W 1021,8 30 0,0
19.06.2018 11:00:00 18,4 14,1 19,9 18 10 29 16 WNW 1021,4 23 0,0
19.06.2018 10:00:00 16,7 15,7 16,6 22 12 36 19 WNW 1021,2 9 0,0
19.06.2018 09:00:00 17,0 15,6 17,4 22 12 36 19 W 1020,2 17 0,0
19.06.2018 08:00:00 16,9 16,0 16,6 25 14 36 19 W 1019,3 17 0,0
19.06.2018 07:00:00 16,7 15,9 16,4 25 14 36 19 W 1018,8 19 0,1
19.06.2018 06:00:00 16,5 15,4 16,1 22 12 36 19 W 1018,4 22 0,0
19.06.2018 05:00:00 15,9 15,2 15,7 14 8 25 14 WSW 1017,8 6 0,2
19.06.2018 04:00:00 16,1 14,7 16,0 18 10 29 16 WSW 1017,9 10 0,0
19.06.2018 03:00:00 16,3 14,8 16,1 25 14 36 19 SW 1017,4 10 0,0
19.06.2018 02:00:00 16,2 14,6 15,9 29 16 47 25 SW 1017,4 12 0,0
19.06.2018 01:00:00 16,0 14,3 15,6 36 19 50 27 SW 1017,3 13 0,0
19.06.2018 00:00:00 16,2 14,1 15,9 36 19 54 29 SW 1017,7 16 0,0
18.06.2018 23:00:00 16,4 13,8 16,0 36 19 50 27 SW 1018,2 22 0,0
18.06.2018 22:00:00 16,0 13,7 15,5 36 19 47 25 SW 1018,2 20 0,0
18.06.2018 21:00:00 16,5 14,1 16,3 29 16 40 21 SW 1017,8 18 0,0
18.06.2018 20:00:00 16,8 14,3 17,0 29 16 40 21 SW 1017,8 17 0,0
18.06.2018 19:00:00 17,3 14,1 17,0 32 18 40 21 WSW 1017,8 20 0,0
18.06.2018 18:00:00 17,3 14,7 17,1 25 14 40 21 WSW 1017,8 19 0,0
18.06.2018 17:00:00 18,1 15,2 17,9 32 18 40 21 WSW 1017,6 20 0,0
18.06.2018 16:00:00 17,4 15,7 16,9 29 16 36 19 WSW 1017,9 15 0,0
18.06.2018 15:00:00 18,3 15,1 18,7 29 16 36 19 WSW 1017,7 22 0,0
18.06.2018 14:00:00 18,0 15,1 18,7 29 16 40 21 WSW 1017,6 21 0,0
18.06.2018 13:00:00 17,9 15,1 18,9 32 18 43 23 WSW 1017,5 25 0,0
18.06.2018 12:00:00 17,9 15,7 17,1 32 18 40 21 WSW 1017,2 14 0,0
18.06.2018 11:00:00 16,6 15,2 16,6 29 16 43 23 WSW 1016,8 14 0,0
18.06.2018 10:00:00 16,4 15,7 16,1 32 18 40 21 WSW 1016,3 12 0,1
18.06.2018 09:00:00 15,5 15,2 15,5 29 16 40 21 SW 1016,2 3,4 0,1
18.06.2018 08:00:00 14,9 14,5 14,7 29 16 40 21 SW 1016,1 4,5 0,1
18.06.2018 07:00:00 15,2 14,1 15,0 29 16 36 19 SW 1016,0 16 0,0
18.06.2018 06:00:00 15,3 13,6 15,1 25 14 36 19 SW 1016,2 17 0,0
18.06.2018 05:00:00 15,2 13,4 15,0 25 14 43 23 SW 1016,1 19 0,0
18.06.2018 04:00:00 15,3 13,4 15,1 29 16 40 21 SW 1016,2 16 0,0
18.06.2018 03:00:00 15,6 13,2 15,3 29 16 40 21 SW 1016,5 16 0,0
18.06.2018 02:00:00 15,7 13,1 15,3 29 16 36 19 SSW 1016,7 17 0,0
18.06.2018 01:00:00 15,6 13,3 15,1 25 14 40 21 SW 1017,1 16 0,0
18.06.2018 00:00:00 15,6 13,0 15,2 25 14 32 18 SW 1017,2 17 0,0
17.06.2018 23:00:00 15,2 12,3 14,6 22 12 32 18 SW 1017,3 22 0,0
17.06.2018 22:00:00 14,3 12,2 13,8 18 10 29 16 WSW 1017,3 21 0,0
17.06.2018 21:00:00 15,3 11,9 15,0 18 10 32 18 WSW 1017,1 25 0,0
17.06.2018 20:00:00 16,4 11,7 16,8 25 14 36 19 WSW 1017,0 21 0,0
17.06.2018 19:00:00 17,1 12,1 17,7 25 14 36 19 W 1016,8 25 0,0
17.06.2018 18:00:00 17,3 11,7 18,4 29 16 40 21 WSW 1016,7 24 0,0
17.06.2018 17:00:00 17,3 12,7 18,2 29 16 40 21 WSW 1016,6 20 0,0
17.06.2018 16:00:00 17,9 11,8 19,9 29 16 40 21 WSW 1016,4 24 0,0
17.06.2018 15:00:00 18,0 12,4 19,8 25 14 40 21 WSW 1016,2 21 0,0
17.06.2018 14:00:00 17,5 12,6 18,0 25 14 40 21 WSW 1015,7 21 0,0
17.06.2018 13:00:00 18,0 12,8 20,2 29 16 40 21 SW 1015,2 26 0,0
17.06.2018 12:00:00 15,9 12,1 16,5 25 14 36 19 WSW 1014,8 23 0,0
17.06.2018 11:00:00 17,7 13,1 18,7 25 14 32 18 WSW 1014,4 26 0,0
17.06.2018 10:00:00 16,1 11,8 16,5 25 14 32 18 WSW 1014,0 30 0,0
17.06.2018 09:00:00 16,2 12,2 15,9 14 8 25 14 WSW 1013,4 39 0,0
17.06.2018 08:00:00 15,5 11,8 15,6 18 10 25 14 W 1012,9 26 0,0
17.06.2018 07:00:00 14,9 13,2 14,6 14 8 29 16 W 1012,5 14 0,0
17.06.2018 06:00:00 14,6 13,4 14,3 22 12 40 21 WSW 1012,2 12 0,0
17.06.2018 05:00:00 14,6 13,3 14,3 32 18 50 27 WSW 1012,3 9 0,0
17.06.2018 04:00:00 15,2 13,1 14,9 32 18 47 25 SW 1012,3 19 0,0
17.06.2018 03:00:00 15,2 13,4 14,8 32 18 47 25 SW 1012,4 19 0,0
17.06.2018 02:00:00 15,2 12,9 14,8 32 18 47 25 SW 1012,7 22 0,0
17.06.2018 01:00:00 15,3 13,0 14,6 29 16 36 19 SW 1012,8 20 0,0
17.06.2018 00:00:00 14,9 12,7 14,3 25 14 36 19 SW 1013,1 19 0,0
16.06.2018 23:00:00 15,0 11,7 14,3 29 16 40 21 SW 1013,3 24 0,0
16.06.2018 22:00:00 15,3 10,7 14,8 29 16 36 19 SW 1013,5 25 0,0
16.06.2018 21:00:00 16,6 11,3 16,1 22 12 29 16 SSW 1013,2 36 0,0
16.06.2018 20:00:00 17,4 10,4 17,5 18 10 25 14 WSW 1013,3 30 0,0
16.06.2018 19:00:00 18,1 11,6 17,6 18 10 29 16 W 1013,6 24 0,0
16.06.2018 18:00:00 18,7 12,1 19,3 22 12 32 18 W 1013,5 25 0,0
16.06.2018 17:00:00 18,6 14,2 19,7 25 14 36 19 SW 1013,2 15 0,0
16.06.2018 16:00:00 19,4 14,6 20,7 29 16 36 19 SW 1013,5 14 0,0
16.06.2018 15:00:00 19,1 13,8 20,2 25 14 36 19 SW 1013,5 15 0,0
16.06.2018 14:00:00 18,6 13,9 20,5 25 14 32 18 SW 1013,9 14 0,0
16.06.2018 13:00:00 17,6 13,9 18,8 18 10 25 14 WSW 1014,1 17 0,0
16.06.2018 12:00:00 17,4 13,8 17,8 14 8 25 14 WSW 1014,2 18 0,0
16.06.2018 11:00:00 17,2 13,7 17,8 18 10 25 14 SW 1014,0 24 0,0
16.06.2018 10:00:00 18,1 15,4 18,9 18 10 22 12 SW 1014,0 9 0,0
16.06.2018 09:00:00 17,8 14,4 18,1 11 6 14 8 S 1014,0 17 0,0
16.06.2018 08:00:00 16,9 14,2 17,0 4 2 11 6 S 1014,2 18 0,0
16.06.2018 07:00:00 15,8 13,4 15,2 7 4 14 8 SSE 1013,9 19 0,0
16.06.2018 06:00:00 15,8 12,7 14,6 11 6 14 8 SE 1014,1 21 0,0
16.06.2018 05:00:00 14,8 12,1 13,5 7 4 14 8 SE 1014,5 22 0,0
16.06.2018 04:00:00 15,7 14,0 14,7 11 6 14 8 ESE 1015,0 18 0,0
16.06.2018 03:00:00 14,2 13,4 12,9 7 4 14 8 E 1015,2 16 0,0
16.06.2018 02:00:00 13,7 12,8 12,5 11 6 14 8 ENE 1015,6 15 0,0
16.06.2018 01:00:00 13,4 12,1 11,8 7 4 14 8 NE 1015,8 16 0,0
16.06.2018 00:00:00 14,4 12,1 13,2 14 8 18 10 ENE 1016,0 19 0,0
15.06.2018 23:00:00 13,6 12,0 11,8 11 6 11 6 NE 1016,1 17 0,0
15.06.2018 22:00:00 14,2 12,3 13,2 7 4 11 6 NE 1016,2 16 0,0
15.06.2018 21:00:00 15,7 11,6 14,8 11 6 14 8 NNE 1016,6 20 0,0
15.06.2018 20:00:00 17,3 11,5 17,7 11 6 18 10 N 1016,7 23 0,0
15.06.2018 19:00:00 18,3 12,6 19,5 11 6 18 10 N 1016,8 24 0,0
15.06.2018 18:00:00 18,6 12,7 20,5 11 6 22 12 NNE 1016,8 27 0,0
15.06.2018 17:00:00 18,9 11,8 20,0 11 6 18 10 NNW 1016,9 26 0,0
15.06.2018 16:00:00 20,5 9,4 21,4 4 2 14 8 SW 1016,8 33 0,0
15.06.2018 15:00:00 20,7 13,6 22,6 11 6 14 8 SSW 1016,9 18 0,0
15.06.2018 14:00:00 20,1 11,6 22,0 7 4 14 8 SSW 1016,8 20 0,0
15.06.2018 13:00:00 19,7 11,0 22,1 7 4 14 8 S 1017,0 26 0,0
15.06.2018 12:00:00 18,7 13,9 20,4 11 6 14 8 SSW 1017,0 18 0,0
15.06.2018 11:00:00 18,0 14,6 19,7 7 4 11 6 SSE 1016,9 15 0,0
15.06.2018 10:00:00 17,3 13,3 18,5 7 4 11 6 S 1016,7 23 0,0
15.06.2018 09:00:00 17,3 12,6 18,6 7 4 11 6 SSW 1016,6 24 0,0
15.06.2018 08:00:00 16,3 13,4 16,7 4 2 7 4 SW 1016,2 22 0,0
15.06.2018 07:00:00 12,6 12,6 11,9 4 2 7 4 S 1016,0 13 0,0
15.06.2018 06:00:00 8,4 8,4 6,4 4 2 7 4 WSW 1015,8 2,7 0,0
15.06.2018 05:00:00 9,2 9,2 6,4 7 4 7 4 WSW 1015,4 0,3 0,0
15.06.2018 04:00:00 8,9 8,8 7,9 7 4 7 4 WSW 1015,4 4,0 0,0
15.06.2018 03:00:00 9,4 9,4 5,0 7 4 7 4 W 1015,4 0,2 0,0
15.06.2018 02:00:00 9,0 9,0 6,2 4 2 7 4 W 1015,5 0,2 0,0
15.06.2018 01:00:00 10,1 10,1 8,0 7 4 11 6 W 1015,5 2,0 0,0
15.06.2018 00:00:00 9,6 9,6 7,6 7 4 11 6 WSW 1015,2 0,4 0,0
14.06.2018 23:00:00 11,1 11,0 10,0 11 6 18 10 W 1014,7 8 0,0
14.06.2018 22:00:00 13,6 12,8 13,3 14 8 29 16 WSW 1014,0 10 0,0
14.06.2018 21:00:00 15,2 13,6 15,0 18 10 36 19 W 1013,2 11 0,0
14.06.2018 20:00:00 15,8 14,1 15,6 32 18 43 23 WSW 1012,5 11 0,0
14.06.2018 19:00:00 16,0 14,5 15,5 36 19 54 29 WSW 1012,0 12 0,0
14.06.2018 18:00:00 15,9 14,6 15,7 40 21 58 31 SW 1011,4 14 0,0
14.06.2018 17:00:00 15,3 14,2 15,2 47 25 68 37 SW 1011,1 19 0,3
14.06.2018 16:00:00 14,6 14,0 14,4 50 27 76 41 SW 1011,0 2,3 0,7
14.06.2018 15:00:00 17,2 12,2 17,1 54 29 72 39 SW 1010,5 19 0,0
14.06.2018 14:00:00 18,5 12,6 18,6 47 25 61 33 SSW 1010,0 20 0,0
14.06.2018 13:00:00 17,7 11,3 17,5 43 23 58 31 SSW 1009,9 23 0,0
14.06.2018 12:00:00 17,9 10,5 18,0 47 25 61 33 SSW 1010,4 25 0,0
14.06.2018 11:00:00 18,1 12,1 18,4 36 19 54 29 SSW 1010,5 22 0,0
14.06.2018 10:00:00 18,5 12,4 18,9 40 21 54 29 SSW 1010,7 20 0,0
14.06.2018 09:00:00 17,3 12,4 17,4 36 19 50 27 SSW 1011,1 20 0,0
14.06.2018 08:00:00 15,9 12,1 15,8 36 19 50 27 SSW 1011,4 21 0,0
14.06.2018 07:00:00 15,2 12,2 15,0 36 19 50 27 SSW 1011,8 28 0,0
14.06.2018 06:00:00 15,0 11,9 14,4 32 18 43 23 SSW 1012,1 30 0,0
14.06.2018 05:00:00 14,9 11,2 14,3 29 16 47 25 SSW 1012,6 41 0,0
14.06.2018 04:00:00 15,5 11,1 15,0 32 18 43 23 SSW 1013,1 40 0,0
14.06.2018 03:00:00 15,3 11,3 15,0 32 18 43 23 SSW 1013,7 43 0,0
14.06.2018 02:00:00 15,5 11,1 15,0 25 14 43 23 SW 1014,3 40 0,0
14.06.2018 01:00:00 15,4 10,2 14,9 32 18 40 21 SW 1014,9 48 0,0
14.06.2018 00:00:00 15,1 10,3 14,6 25 14 36 19 SW 1015,5 48 0,0
13.06.2018 23:00:00 14,5 9,7 13,9 25 14 36 19 SW 1015,6 50 0,0
13.06.2018 22:00:00 14,3 9,1 13,7 22 12 32 18 WSW 1015,7 48 0,0

tt = Température de l'air
td = dewpoint
tt 5cm = Température de l'air 5cm
ff = Vitesse du vent
fx = gusts
dd = Direction du vent
ppp = reduced air pressure
vv = visibility
rr = Quantités de précipitations

stations d'obs. à proximité